TimeCDT,TemperatureF,Dew PointF,Humidity,Sea Level PressureIn,VisibilityMPH,Wind Direction,Wind SpeedMPH,Gust SpeedMPH,PrecipitationIn,Events,Conditions,WindDirDegrees,DateUTC
12:53 AM,43.0,33.1,68,30.14,10.0,East,17.3,-,N/A,,Overcast,80,2013-04-17 05:53:00
1:53 AM,42.1,34.0,73,30.13,10.0,NE,8.1,-,N/A,,Overcast,50,2013-04-17 06:53:00
2:53 AM,42.1,35.1,76,30.09,10.0,NE,11.5,-,N/A,,Overcast,40,2013-04-17 07:53:00
3:51 AM,41.0,35.6,81,30.01,10.0,NE,17.3,-,N/A,,Overcast,50,2013-04-17 08:51:00
3:53 AM,41.0,35.1,79,30.04,10.0,NE,15.0,-,N/A,,Overcast,50,2013-04-17 08:53:00
4:06 AM,41.0,35.6,81,30.01,10.0,NNE,16.1,-,N/A,Thunderstorm,Overcast,30,2013-04-17 09:06:00
4:21 AM,39.2,33.8,81,30.04,10.0,NNE,12.7,-,0.01,Rain-Thunderstorm,Light Rain,20,2013-04-17 09:21:00
4:53 AM,35.1,33.1,92,30.05,7.0,North,-9999.0,-,0.13,Rain-Thunderstorm,Light Rain,0,2013-04-17 09:53:00
5:12 AM,35.6,33.8,93,30.02,8.0,North,-9999.0,-,0.02,Rain-Thunderstorm,Light Rain,0,2013-04-17 10:12:00
5:39 AM,33.8,33.8,100,30.01,5.0,North,-9999.0,-,0.11,Rain,Light Rain,0,2013-04-17 10:39:00
5:53 AM,34.0,33.1,96,30.03,5.0,North,-9999.0,-,0.16,Rain,Rain,0,2013-04-17 10:53:00
6:01 AM,33.8,33.8,100,30.01,6.0,North,-9999.0,-,0.01,Rain,Light Rain,0,2013-04-17 11:01:00
6:03 AM,33.8,33.8,100,30.00,6.0,North,-9999.0,-,0.02,Rain-Thunderstorm,Light Rain,0,2013-04-17 11:03:00
6:44 AM,33.8,33.8,100,30.05,6.0,North,-9999.0,-,0.11,Rain,Rain,0,2013-04-17 11:44:00
6:53 AM,34.0,33.1,96,30.06,6.0,North,-9999.0,-,0.12,Rain,Light Rain,0,2013-04-17 11:53:00
6:58 AM,33.8,33.8,100,30.03,8.0,North,18.4,-,0.00,Rain,Light Rain,10,2013-04-17 11:58:00
7:53 AM,34.0,33.1,96,30.04,10.0,North,18.4,-,0.01,,Overcast,10,2013-04-17 12:53:00
8:53 AM,34.0,33.1,96,30.05,8.0,North,17.3,-,0.00,Rain,Light Rain,360,2013-04-17 13:53:00
9:17 AM,33.8,33.8,100,30.01,3.0,North,20.7,-,0.00,Rain,Light Rain,360,2013-04-17 14:17:00
9:53 AM,35.1,34.0,96,30.03,5.0,North,17.3,28.8,0.00,,Overcast,10,2013-04-17 14:53:00
10:08 AM,35.6,33.8,93,29.99,2.5,North,17.3,28.8,0.00,Rain,Light Rain,10,2013-04-17 15:08:00
10:38 AM,35.6,33.8,93,29.99,3.0,North,17.3,28.8,0.00,Rain,Light Rain,10,2013-04-17 15:38:00
10:45 AM,35.6,33.8,93,29.99,3.0,North,17.3,28.8,0.00,,Overcast,10,2013-04-17 15:45:00
10:53 AM,35.1,34.0,96,30.02,3.0,North,18.4,28.8,0.00,,Overcast,10,2013-04-17 15:53:00
11:31 AM,35.6,33.8,93,29.99,2.5,North,18.4,27.6,N/A,,Overcast,10,2013-04-17 16:31:00
11:51 AM,35.6,33.8,93,29.97,1.5,North,18.4,27.6,0.00,Snow,Light Snow,10,2013-04-17 16:51:00
11:53 AM,35.1,34.0,96,29.99,1.5,North,18.4,27.6,0.00,Snow,Light Snow,10,2013-04-17 16:53:00
12:13 PM,35.6,35.6,100,29.96,2.5,North,17.3,27.6,0.00,Rain,Light Rain,10,2013-04-17 17:13:00
12:23 PM,35.6,35.6,100,29.96,3.0,North,17.3,27.6,0.00,Rain,Light Rain,10,2013-04-17 17:23:00
12:33 PM,35.6,35.6,100,29.95,4.0,North,17.3,27.6,0.00,,Overcast,10,2013-04-17 17:33:00
12:53 PM,36.0,35.1,97,29.99,4.0,North,17.3,27.6,0.00,,Overcast,10,2013-04-17 17:53:00
1:53 PM,37.0,35.1,93,29.96,6.0,North,20.7,27.6,N/A,,Overcast,360,2013-04-17 18:53:00
2:53 PM,37.0,36.0,96,29.91,3.0,North,20.7,28.8,0.00,,Overcast,10,2013-04-17 19:53:00
3:53 PM,37.0,36.0,96,29.91,1.5,North,20.7,28.8,0.00,Snow,Light Snow,10,2013-04-17 20:53:00
4:53 PM,37.9,36.0,93,29.96,1.5,North,20.7,28.8,0.00,Rain,Light Rain,360,2013-04-17 21:53:00
5:53 PM,37.0,36.0,96,29.90,1.5,North,20.7,28.8,0.00,Rain,Light Rain,360,2013-04-17 22:53:00
6:44 PM,37.4,35.6,93,29.87,3.0,NNW,25.3,32.2,0.00,,Overcast,340,2013-04-17 23:44:00
6:53 PM,37.0,35.1,93,29.91,6.0,NNW,25.3,32.2,0.00,,Overcast,340,2013-04-17 23:53:00
7:53 PM,35.1,33.1,92,29.95,10.0,North,-9999.0,-,N/A,,Overcast,0,2013-04-18 00:53:00
8:53 PM,35.1,32.0,89,29.98,10.0,North,-9999.0,-,N/A,,Overcast,0,2013-04-18 01:53:00
9:53 PM,34.0,32.0,92,29.97,10.0,North,-9999.0,-,N/A,,Overcast,0,2013-04-18 02:53:00
10:53 PM,33.1,30.9,92,29.98,10.0,North,-9999.0,-,N/A,,Overcast,0,2013-04-18 03:53:00
11:53 PM,32.0,30.0,92,29.90,10.0,North,-9999.0,-,N/A,,Overcast,0,2013-04-18 04:53:00